Notices

What's New in latest Release from April 7th, 2021:

- Updated Glossary, including Speed of Maximum Gust, and Total Hourly Precipitation

- Updated national and regional climate services offices contacts and prices information

- Addition of station inventory lists for 1981-2010, 1971-2000, and 1961-1990 Normals.

If you haven't already, please take our survey and provide feedback about our website: https://eccc.sondage-survey.ca/f/LanguageSelection.aspx?s=442ca660-fcf1-47c0-95a9-59707d6fd709

Hourly Data Report for February 25, 2004

SHERBROOKE A
QUEBEC

45°26'00.000" N
71°41'00.000" W
241.40 m
7028124
71610
YSC

Download Data

Hourly Data (February 2004)
Hourly Data Report for February 25, 2004
TIME
LST
Temp Definition
°C
Dew Point Definition
°C
Rel Hum Definition
%
Precip. Amount Definition
mm

Wind Dir Definition
10's deg

Wind Spd Definition
km/h
Visibility Definition
km
Stn Press Definition
kPa
Hmdx Definition


Wind Chill Definition


Weather Definition


00:00 -21.1 -24.6 73     0 15.0 98.75      
01:00 -19.4 -23.0 73   14 4 15.0 98.78   -23  
02:00 -18.9 -22.7 72     0 15.0 98.81      
03:00 -18.8 -22.7 71     0 15.0 98.76      
04:00 -18.6 -22.5 71   12 4 15.0 98.78   -22  
05:00 -18.0 -21.9 71     0 15.0 98.82      
06:00 -19.4 -23.1 72     0 15.0 98.88      
07:00 -20.9 -24.1 75     0 15.0 98.93      
08:00 -16.8 -22.1 63     0 24.1 98.99     Mainly Clear
09:00 -12.4 -19.5 55   25 9 24.1 99.02   -18 Mainly Clear
10:00 -10.2 -18.5 51   26 13 24.1 99.01   -16 Mainly Clear
11:00 -8.5 -17.4 49   28 17 24.1 99.02   -15 Mainly Clear
12:00 -7.6 -16.8 48   29 17 24.1 99.02   -14 Clear
13:00 -6.9 -17.0 44   28 17 24.1 99.04   -13 Clear
14:00 -6.7 -17.0 44   28 20 24.1 99.08   -14 Clear
15:00 -6.1 -16.9 42   27 17 24.1 99.12   -12 Clear
16:00 -5.5 -17.4 39   27 13 24.1 99.16   -11 Clear
17:00 -6.5 -17.7 41   29 13 24.1 99.20   -12 Clear
18:00 -7.2 -18.3 41   25 4 15.0 99.26   -9  
19:00 -9.6 -18.8 47   21 6 15.0 99.30   -13  
20:00 -10.2 -18.2 52   22 7 15.0 99.32   -14  
21:00 -13.2 -19.6 59   23 4 15.0 99.37   -16  
22:00 -17.4 -21.9 68     0 15.0 99.38      
23:00 -15.3 -21.2 61     0 15.0 99.39      

Notes on Data Quality.

Legend

  • E = Estimated
  • M = Missing
  • NA = Not Available*
  • [empty] = Indicates an unobserved value
Date modified: